Tracking 19562 objects as of 22-Mar-2019
HD Live streaming from Space Station
objects crossing your sky now

KESTREL EYE 2M

Track KESTREL EYE 2M now!
10-day predictions


NORAD ID: 42982
Int'l Code: 1998-067NE
Perigee: 388.2 km
Apogee: 394.0 km
Inclination: 51.6 °
Period: 92.2 minutes
Semi major axis: 6762 km
RCS: Unknown
Launch date: November 20, 1998
Source: United States (US)
Launch site: TYURATAM MISSILE AND SPACE COMPLEX (TTMTR)
aabbcc
Your satellite tracking list
Your tracking list is empty




NASA's NSSDC Master Catalog

Two Line Element Set (TLE):
1 42982U 98067NE  19081.31586793  .00007237  00000-0  89576-4 0  9994
2 42982  51.6379  58.0827 0004231 153.9382 206.1825 15.61280256 80108
Source of the keplerian elements: AFSPC